User: anonymous   Login
Location: *
(46.0770°N, 1.6444°E)
Time: 11:32:15
(UTC+00:00)
Language:

Cosmos 389 Rocket - Orbit

View from above orbital plane
View from above orbital plane
View from above satellite
View from above satellite

Ground track
Ground track

The orbit data is extracted from the following two-line orbital elements,

1  4814U 70113B   19325.94044193 +.00001191 +00000-0 +33943-4 0  9991
2  4814 081.1445 046.8933 0023606 268.2178 091.6356 15.34956960671143
Epoch (UTC): 21 November 2019 22:34:14
Eccentricity: 0.0023606
inclination: 81.1445°
perigee height: 445 km
apogee height: 477 km
right ascension of ascending node: 46.8933°
argument of perigee: 268.2178°
revolutions per day: 15.34956960
mean anomaly at epoch: 91.6356°
orbit number at epoch: 67114

The dashed part of the orbit path shows where the satellite is in the earth's shadow,  

DLR